Zurück zum Katalog

FREGAT R/B

AktivMEO
NORAD 40352·ROCKET BODY·🇷🇺 Russia

Gestartet Dec 18, 2014 von Guiana Space Centre

Loading…

Nächste Überflüge (nächste 24 Stunden)

TLE

AktuellSource: Space-Track

Epoche: Sep 14, 2026, 09:10 UTC

1 40352U 14083E   26257.38211334 -.00000024  00000-0  00000-0 0  9994
2 40352   0.0943  52.6485 0007654  34.4489 272.9911  5.20672770223336

Verfolge FREGAT R/B in Echtzeit mit AllMySat

Download on the App Store